Location: Prairie Dale
(45.6972°N, 104.5033°W)
Time: 14:38:56
(UTC+00:00)

DX 1 - Pass Details

Date: 05 July 2022
Orbit: 616 x 630 km, 98.4° (Epoch: 18 August)

Event Time Altitude Azimuth Distance (km) Brightness Sun altitude
Rises 04:23:34 0° 12° (NNE) 2,930 ? -12.6°
Reaches altitude 10° 04:25:47 10° 11° (N) 2,017 ? -12.8°
Maximum altitude 04:30:10 77° 286° (WNW) 649 ? -13.3°
Drops below altitude 10° 04:34:30 10° 201° (SSW) 1,994 ? -13.7°
Enters shadow 04:35:19 - 200° (SSW) 2,329 ? -13.8°
